Grub im Wienerwald
Wetterdaten: aktuell Montag, 02.08.2021 21:33
Datum Zeit Temp. A. Feuchte A. Luftdruck Regen Wind Richtung Richtung Sonnenschein UV Solar Taupunkt Windchill Windben
02.08.2021 21:33 15,8 C 80 % 1014,1 hPa 0,0 l/m 0,0 km/h NW 323 0 min 0,0 UV-I 0 W/m 12,4 C 15,8 C 0,0 km/h
02.08.2021 21:30 15,9 C 79 % 1014,0 hPa 0,0 l/m 0,0 km/h NW 323 0 min 0,0 UV-I 0 W/m 12,3 C 15,9 C 0,0 km/h
02.08.2021 21:27 16,1 C 79 % 1014,0 hPa 0,0 l/m 0,0 km/h NW 323 0 min 0,0 UV-I 0 W/m 12,5 C 16,1 C 0,0 km/h
02.08.2021 21:24 16,2 C 79 % 1013,9 hPa 0,0 l/m 0,0 km/h NW 323 0 min 0,0 UV-I 0 W/m 12,6 C 16,2 C 0,0 km/h
02.08.2021 21:21 16,3 C 78 % 1013,9 hPa 0,0 l/m 0,0 km/h NW 323 0 min 0,0 UV-I 0 W/m 12,5 C 16,3 C 0,0 km/h
02.08.2021 21:18 16,5 C 78 % 1013,7 hPa 0,0 l/m 0,0 km/h NW 323 0 min 0,0 UV-I 0 W/m 12,6 C 16,5 C 0,0 km/h
02.08.2021 21:15 16,6 C 77 % 1013,8 hPa 0,0 l/m 0,0 km/h NW 323 0 min 0,0 UV-I 0 W/m 12,5 C 16,6 C 0,0 km/h
02.08.2021 21:12 16,8 C 77 % 1013,7 hPa 0,0 l/m 0,0 km/h NW 323 0 min 0,0 UV-I 0 W/m 12,7 C 16,8 C 0,0 km/h
02.08.2021 21:09 16,9 C 76 % 1013,7 hPa 0,0 l/m 0,0 km/h NW 323 0 min 0,0 UV-I 0 W/m 12,6 C 16,9 C 0,0 km/h
02.08.2021 21:06 17,1 C 76 % 1013,7 hPa 0,0 l/m 0,0 km/h NW 323 0 min 0,0 UV-I 0 W/m 12,8 C 17,1 C 0,0 km/h
02.08.2021 21:03 17,2 C 76 % 1013,7 hPa 0,0 l/m 0,0 km/h NW 323 0 min 0,0 UV-I 0 W/m 12,9 C 17,2 C 0,0 km/h
02.08.2021 21:00 17,4 C 76 % 1013,6 hPa 0,0 l/m 0,0 km/h NW 323 0 min 0,0 UV-I 0 W/m 13,1 C 17,4 C 0,0 km/h
02.08.2021 20:57 17,6 C 75 % 1013,6 hPa 0,0 l/m 0,0 km/h NW 323 0 min 0,0 UV-I 0 W/m 13,1 C 17,6 C 0,0 km/h
02.08.2021 20:54 17,7 C 75 % 1013,5 hPa 0,0 l/m 0,0 km/h NW 323 0 min 0,0 UV-I 0 W/m 13,2 C 17,7 C 0,0 km/h
02.08.2021 20:51 17,8 C 75 % 1013,5 hPa 0,0 l/m 0,0 km/h NW 323 0 min 0,0 UV-I 0 W/m 13,3 C 17,8 C 1,6 km/h
02.08.2021 20:48 18,0 C 74 % 1013,5 hPa 0,0 l/m 0,0 km/h NW 323 0 min 0,0 UV-I 0 W/m 13,3 C 18,0 C 0,0 km/h
02.08.2021 20:45 18,2 C 73 % 1013,4 hPa 0,0 l/m 0,0 km/h NW 323 0 min 0,0 UV-I 0 W/m 13,3 C 18,2 C 0,0 km/h
02.08.2021 20:42 18,3 C 73 % 1013,4 hPa 0,0 l/m 0,0 km/h NW 323 0 min 0,0 UV-I 0 W/m 13,4 C 18,3 C 0,0 km/h
02.08.2021 20:39 18,6 C 72 % 1013,3 hPa 0,0 l/m 0,0 km/h NW 323 0 min 0,0 UV-I 0 W/m 13,4 C 18,6 C 0,0 km/h
02.08.2021 20:36 18,7 C 71 % 1013,2 hPa 0,0 l/m 0,0 km/h NW 323 0 min 0,0 UV-I 5 W/m 13,3 C 18,7 C 0,0 km/h
02.08.2021 20:33 18,8 C 71 % 1013,3 hPa 0,0 l/m 0,0 km/h NW 323 0 min 0,0 UV-I 5 W/m 13,4 C 18,8 C 0,0 km/h
02.08.2021 20:30 18,9 C 71 % 1013,3 hPa 0,0 l/m 0,0 km/h NW 323 0 min 0,0 UV-I 7 W/m 13,5 C 18,9 C 0,0 km/h
02.08.2021 20:27 19,1 C 71 % 1013,3 hPa 0,0 l/m 0,3 km/h NW 323 0 min 0,0 UV-I 9 W/m 13,7 C 19,1 C 1,6 km/h
02.08.2021 20:24 19,2 C 71 % 1013,2 hPa 0,0 l/m 0,0 km/h NW 323 0 min 0,0 UV-I 9 W/m 13,8 C 19,2 C 1,6 km/h
02.08.2021 20:21 19,3 C 70 % 1013,2 hPa 0,0 l/m 0,1 km/h NW 323 0 min 0,0 UV-I 11 W/m 13,7 C 19,3 C 1,6 km/h
02.08.2021 20:18 19,4 C 70 % 1013,2 hPa 0,0 l/m 0,0 km/h NW 323 3 min 0,0 UV-I 12 W/m 13,8 C 19,4 C 0,0 km/h
02.08.2021 20:15 19,5 C 69 % 1013,2 hPa 0,0 l/m 0,6 km/h NW 323 3 min 0,0 UV-I 14 W/m 13,7 C 19,5 C 3,2 km/h
02.08.2021 20:12 19,6 C 69 % 1013,2 hPa 0,0 l/m 0,0 km/h NW 323 0 min 0,0 UV-I 14 W/m 13,8 C 19,6 C 0,0 km/h
02.08.2021 20:09 19,8 C 68 % 1013,2 hPa 0,0 l/m 0,0 km/h NW 323 0 min 0,0 UV-I 16 W/m 13,7 C 19,8 C 0,0 km/h
02.08.2021 20:06 20,1 C 68 % 1013,1 hPa 0,0 l/m 0,0 km/h NW 323 0 min 0,0 UV-I 18 W/m 14,0 C 20,1 C 0,0 km/h
02.08.2021 20:03 20,3 C 66 % 1013,1 hPa 0,0 l/m 0,0 km/h NW 323 0 min 0,0 UV-I 19 W/m 13,7 C 20,3 C 1,6 km/h
02.08.2021 20:00 20,6 C 66 % 1013,1 hPa 0,0 l/m 0,1 km/h NW 323 0 min 0,0 UV-I 21 W/m 14,0 C 20,6 C 1,6 km/h
02.08.2021 19:57 20,7 C 64 % 1013,1 hPa 0,0 l/m 0,0 km/h NW 323 0 min 0,0 UV-I 21 W/m 13,6 C 20,7 C 0,0 km/h
02.08.2021 19:54 20,8 C 63 % 1013,0 hPa 0,0 l/m 0,0 km/h NW 323 0 min 0,0 UV-I 23 W/m 13,5 C 20,8 C 0,0 km/h
02.08.2021 19:51 21,1 C 61 % 1013,1 hPa 0,0 l/m 0,0 km/h NW 323 0 min 0,0 UV-I 25 W/m 13,3 C 21,1 C 1,6 km/h
02.08.2021 19:48 21,3 C 62 % 1013,0 hPa 0,0 l/m 0,1 km/h NW 323 0 min 0,0 UV-I 28 W/m 13,7 C 21,3 C 1,6 km/h
02.08.2021 19:45 21,3 C 61 % 1012,9 hPa 0,0 l/m 0,0 km/h NW 323 0 min 0,0 UV-I 54 W/m 13,5 C 21,3 C 0,0 km/h
02.08.2021 19:42 21,4 C 59 % 1012,9 hPa 0,0 l/m 0,0 km/h NW 323 3 min 0,6 UV-I 63 W/m 13,0 C 21,4 C 0,0 km/h
02.08.2021 19:39 21,4 C 59 % 1012,9 hPa 0,0 l/m 0,1 km/h NW 323 3 min 0,6 UV-I 69 W/m 13,0 C 21,4 C 1,6 km/h
02.08.2021 19:36 21,6 C 59 % 1012,8 hPa 0,0 l/m 0,5 km/h NW 323 3 min 0,7 UV-I 77 W/m 13,2 C 21,6 C 3,2 km/h
02.08.2021 19:33 21,6 C 59 % 1012,8 hPa 0,0 l/m 1,3 km/h NW 323 3 min 0,7 UV-I 84 W/m 13,2 C 21,6 C 3,2 km/h
02.08.2021 19:30 21,7 C 60 % 1012,8 hPa 0,0 l/m 0,5 km/h NW 323 3 min 0,7 UV-I 95 W/m 13,6 C 21,7 C 3,2 km/h
02.08.2021 19:27 21,7 C 59 % 1012,8 hPa 0,0 l/m 0,3 km/h NW 323 3 min 0,7 UV-I 102 W/m 13,3 C 21,7 C 3,2 km/h
02.08.2021 19:24 21,8 C 58 % 1012,8 hPa 0,0 l/m 0,2 km/h NW 323 3 min 0,7 UV-I 105 W/m 13,2 C 21,8 C 1,6 km/h
02.08.2021 19:21 21,8 C 57 % 1012,7 hPa 0,0 l/m 0,7 km/h NW 323 3 min 0,7 UV-I 120 W/m 12,9 C 21,8 C 3,2 km/h
02.08.2021 19:18 21,8 C 57 % 1012,8 hPa 0,0 l/m 0,8 km/h NW 323 3 min 0,8 UV-I 130 W/m 12,9 C 21,8 C 3,2 km/h
02.08.2021 19:15 21,8 C 56 % 1012,7 hPa 0,0 l/m 1,2 km/h NW 323 3 min 0,8 UV-I 139 W/m 12,6 C 21,8 C 4,8 km/h
02.08.2021 19:12 21,8 C 56 % 1012,7 hPa 0,0 l/m 4,6 km/h NW 323 3 min 0,8 UV-I 149 W/m 12,6 C 21,8 C 9,7 km/h
02.08.2021 19:09 21,7 C 56 % 1012,6 hPa 0,0 l/m 5,0 km/h NW 323 3 min 0,8 UV-I 148 W/m 12,5 C 21,7 C 8,0 km/h
02.08.2021 19:06 21,7 C 58 % 1012,7 hPa 0,0 l/m 3,6 km/h NW 322 3 min 0,8 UV-I 169 W/m 13,1 C 21,7 C 8,0 km/h
02.08.2021 19:03 21,6 C 56 % 1012,6 hPa 0,0 l/m 3,7 km/h NW 322 3 min 0,9 UV-I 176 W/m 12,4 C 21,6 C 6,4 km/h
02.08.2021 19:00 21,6 C 55 % 1012,7 hPa 0,0 l/m 3,1 km/h NW 322 3 min 0,9 UV-I 188 W/m 12,2 C 21,6 C 6,4 km/h
02.08.2021 18:57 21,7 C 54 % 1012,6 hPa 0,0 l/m 3,1 km/h NW 322 3 min 0,9 UV-I 193 W/m 12,0 C 21,7 C 6,4 km/h
02.08.2021 18:54 21,8 C 53 % 1012,6 hPa 0,0 l/m 4,2 km/h NW 322 3 min 0,9 UV-I 204 W/m 11,8 C 21,8 C 9,7 km/h
02.08.2021 18:51 22,0 C 52 % 1012,6 hPa 0,0 l/m 5,5 km/h NW 325 3 min 1,0 UV-I 213 W/m 11,7 C 22,0 C 9,7 km/h
02.08.2021 18:48 22,1 C 53 % 1012,6 hPa 0,0 l/m 5,0 km/h NW 325 3 min 1,0 UV-I 221 W/m 12,1 C 22,1 C 11,3 km/h
02.08.2021 18:45 22,2 C 53 % 1012,6 hPa 0,0 l/m 6,4 km/h N-NW 329 3 min 1,0 UV-I 234 W/m 12,2 C 22,2 C 9,7 km/h
02.08.2021 18:42 22,2 C 51 % 1012,6 hPa 0,0 l/m 4,6 km/h N 349 3 min 1,1 UV-I 246 W/m 11,6 C 22,2 C 9,7 km/h
02.08.2021 18:39 22,3 C 51 % 1012,6 hPa 0,0 l/m 5,8 km/h N 355 3 min 1,1 UV-I 251 W/m 11,7 C 22,3 C 11,3 km/h
02.08.2021 18:36 22,4 C 51 % 1012,6 hPa 0,0 l/m 6,3 km/h NW 313 3 min 1,1 UV-I 258 W/m 11,8 C 22,4 C 11,3 km/h
02.08.2021 18:33 22,6 C 50 % 1012,5 hPa 0,0 l/m 5,4 km/h NW 313 3 min 1,2 UV-I 269 W/m 11,6 C 22,6 C 11,3 km/h
02.08.2021 18:30 22,7 C 52 % 1012,5 hPa 0,0 l/m 4,5 km/h N-NW 329 3 min 1,2 UV-I 276 W/m 12,3 C 22,7 C 11,3 km/h
02.08.2021 18:27 22,8 C 52 % 1012,5 hPa 0,0 l/m 3,2 km/h N-NW 331 3 min 1,2 UV-I 288 W/m 12,4 C 22,8 C 6,4 km/h
02.08.2021 18:24 22,8 C 51 % 1012,4 hPa 0,0 l/m 5,1 km/h N-NW 331 3 min 1,3 UV-I 295 W/m 12,1 C 22,8 C 9,7 km/h
02.08.2021 18:21 22,8 C 51 % 1012,4 hPa 0,0 l/m 5,1 km/h N-NW 331 3 min 1,3 UV-I 304 W/m 12,1 C 22,8 C 9,7 km/h
02.08.2021 18:18 22,8 C 52 % 1012,3 hPa 0,0 l/m 5,8 km/h N-NW 330 3 min 1,3 UV-I 279 W/m 12,4 C 22,8 C 11,3 km/h
02.08.2021 18:15 22,9 C 51 % 1012,3 hPa 0,0 l/m 6,2 km/h N-NW 327 3 min 1,5 UV-I 313 W/m 12,2 C 22,9 C 11,3 km/h
02.08.2021 18:12 23,0 C 49 % 1012,3 hPa 0,0 l/m 5,1 km/h NW 310 3 min 1,5 UV-I 330 W/m 11,7 C 23,0 C 9,7 km/h
02.08.2021 18:09 23,1 C 51 % 1012,3 hPa 0,0 l/m 6,9 km/h NW 311 3 min 1,6 UV-I 341 W/m 12,4 C 22,9 C 14,5 km/h
02.08.2021 18:06 23,1 C 50 % 1012,3 hPa 0,0 l/m 4,4 km/h NW 316 3 min 1,6 UV-I 348 W/m 12,1 C 23,1 C 11,3 km/h
02.08.2021 18:03 23,1 C 53 % 1012,3 hPa 0,0 l/m 4,5 km/h NW 319 3 min 1,6 UV-I 339 W/m 13,0 C 23,1 C 12,9 km/h
02.08.2021 18:00 23,0 C 54 % 1012,3 hPa 0,0 l/m 3,1 km/h W-NW 292 3 min 1,7 UV-I 366 W/m 13,2 C 23,0 C 6,4 km/h
02.08.2021 17:57 22,9 C 52 % 1012,2 hPa 0,0 l/m 7,1 km/h W-NW 292 3 min 1,8 UV-I 380 W/m 12,5 C 22,7 C 12,9 km/h
02.08.2021 17:54 22,9 C 52 % 1012,2 hPa 0,0 l/m 3,1 km/h NW 315 3 min 1,8 UV-I 387 W/m 12,5 C 22,9 C 8,0 km/h
02.08.2021 17:51 22,9 C 49 % 1012,3 hPa 0,0 l/m 5,7 km/h NW 315 3 min 1,9 UV-I 380 W/m 11,6 C 22,9 C 11,3 km/h
02.08.2021 17:48 22,9 C 51 % 1012,3 hPa 0,0 l/m 4,2 km/h N-NW 330 3 min 1,9 UV-I 385 W/m 12,2 C 22,9 C 11,3 km/h
02.08.2021 17:45 22,9 C 49 % 1012,2 hPa 0,0 l/m 8,1 km/h N-NW 342 3 min 2,0 UV-I 406 W/m 11,6 C 22,4 C 14,5 km/h
02.08.2021 17:42 22,9 C 50 % 1012,3 hPa 0,0 l/m 7,4 km/h N-NW 338 3 min 2,0 UV-I 427 W/m 11,9 C 22,6 C 14,5 km/h
02.08.2021 17:39 23,0 C 50 % 1012,3 hPa 0,0 l/m 8,4 km/h W-NW 301 3 min 2,1 UV-I 381 W/m 12,0 C 22,4 C 16,1 km/h
02.08.2021 17:36 23,2 C 48 % 1012,4 hPa 0,0 l/m 5,5 km/h W 273 3 min 2,0 UV-I 380 W/m 11,6 C 23,2 C 14,5 km/h
02.08.2021 17:33 23,3 C 51 % 1012,5 hPa 0,0 l/m 6,7 km/h N-NW 342 3 min 2,0 UV-I 311 W/m 12,6 C 23,2 C 11,3 km/h
02.08.2021 17:30 23,3 C 49 % 1012,5 hPa 0,0 l/m 8,2 km/h NW 306 3 min 2,4 UV-I 455 W/m 12,0 C 22,8 C 14,5 km/h
02.08.2021 17:27 23,3 C 48 % 1012,6 hPa 0,0 l/m 9,7 km/h N-NW 335 3 min 2,4 UV-I 462 W/m 11,7 C 22,4 C 16,1 km/h
02.08.2021 17:24 23,4 C 46 % 1012,6 hPa 0,0 l/m 11,3 km/h N-NW 329 3 min 2,4 UV-I 466 W/m 11,1 C 22,1 C 19,3 km/h
02.08.2021 17:21 23,6 C 51 % 1012,5 hPa 0,0 l/m 8,5 km/h N-NW 341 3 min 2,5 UV-I 448 W/m 12,9 C 23,0 C 19,3 km/h
02.08.2021 17:18 23,7 C 53 % 1012,5 hPa 0,0 l/m 5,5 km/h NW 323 3 min 2,6 UV-I 462 W/m 13,5 C 23,7 C 9,7 km/h
02.08.2021 17:15 23,6 C 51 % 1012,6 hPa 0,0 l/m 4,5 km/h NW 326 3 min 2,6 UV-I 489 W/m 12,9 C 23,6 C 9,7 km/h
02.08.2021 17:12 23,5 C 50 % 1012,6 hPa 0,0 l/m 6,4 km/h NW 326 3 min 2,7 UV-I 496 W/m 12,5 C 23,5 C 12,9 km/h
02.08.2021 17:09 23,4 C 50 % 1012,6 hPa 0,0 l/m 7,8 km/h N-NW 327 3 min 2,8 UV-I 501 W/m 12,4 C 23,0 C 14,5 km/h
02.08.2021 17:06 23,4 C 51 % 1012,6 hPa 0,0 l/m 8,4 km/h NW 314 3 min 2,9 UV-I 510 W/m 12,7 C 22,8 C 14,5 km/h
02.08.2021 17:03 23,3 C 50 % 1012,6 hPa 0,0 l/m 11,0 km/h NW 317 3 min 2,9 UV-I 519 W/m 12,3 C 22,0 C 17,7 km/h
_ Min-Zeit 03:51 17:24 22:18 - 19:42 - - - - - 17:24 04:09 19:42
Minimum _ 14,3 C 46 % 1008,8 hPa - 0,0 km/h - - - - - 11,1 C 10,0 C 0,0 km/h
_ Max-Zeit 17:18 22:00 21:33 11:39 10:42 - - 07:06 12:42 11:57 12:57 17:18 10:18
Maximum _ 23,7 C 94 % 1014,1 hPa 0,2 l/m 17,3 km/h
NW
- - 3 min 9,0 UV-I 1074 W/m 15,4 C 23,7 C 35,4 km/h
W-NW
Durchschnitt _ 17,8 C 77 % 1011,9 hPa #0,2 l/m 8,3 km/h NW - #10:18 h 4,2 UV-I 448 W/m 13,3 C 16,5 C 16,6 km/h
Schulla EDV